Regional Weather Roundup
Issued by NWS Albany, NY

Home | Current Version | Previous Version | Graphics & Text | Print | Product List | Glossary On
Versions: 1 2 3 4 5 6 7 8 9 10 11 12 13 14 15 16 17 18 19 20 21 22 23 24 25 26 27 28
000
ASUS41 KALY 030010
RWRALY

NEW YORK STATE HOURLY WEATHER ROUNDUP
NATIONAL WEATHER SERVICE ALBANY NY
800 PM EDT MON MAY 02 2016

NOTE: "FAIR" INDICATES FEW OR NO CLOUDS BELOW 12,000 FEET WITH NO
SIGNIFICANT WEATHER AND/OR NO OBSTRUCTIONS TO VISIBILITY.

NYZ032-033-038>043-046>054-057>066-NYZ062>081-082-084-030100-
EAST


CITY           SKY/WX    TMP DP  RH WIND       PRES   REMARKS
ALBANY         LGT RAIN  51  49  92 CALM      29.94R FOG
GLENS FALLS    CLOUDY    50  46  86 CALM      29.94R
POUGHKEEPSIE   MOCLDY    59  51  75 N3        29.91R
NEWBURGH       PTCLDY    57  52  82 W12       29.93R
MONTGOMERY     PTCLDY    57  50  77 CALM      29.91R
WHITE PLAINS   PTCLDY    54  51  90 CALM      29.92R
ISLIP          MOCLDY    52  47  83 SW6       29.93R
NEW YORK CITY  MOCLDY    60  51  72 S3        29.93R
CENTRAL PARK   CLEAR     58  51  78 CALM      29.95R
$$

NYZ005>009-017-018-044>046-055-056-030100-
CENTRAL


CITY           SKY/WX    TMP DP  RH WIND       PRES   REMARKS
FULTON         CLOUDY    48  43  82 NW6       30.00S
SYRACUSE       CLOUDY    48  43  82 NW8       29.98S
ROME           CLOUDY    49  46  90 W8        29.98R
ELMIRA         CLOUDY    48  42  80 NE6       29.96F
BINGHAMTON     CLOUDY    45  42  89 N8        29.95S
MONTICELLO     CLOUDY    52  48  87 W5        29.94S
$$

NYZ026>034-041>043-087-030100-
NORTH


CITY           SKY/WX    TMP DP  RH WIND       PRES   REMARKS
WATERTOWN      CLOUDY    47  43  86 N5        29.98F
FORT DRUM      NOT AVBL
MASSENA        CLOUDY    47  42  83 N5        30.01R
SARANAC LAKE   CLOUDY    42  39  89 N3        29.93S
PLATTSBURGH    NOT AVBL
$$

NYZ001>004-010>016-019>021-085-030100-
WEST


CITY           SKY/WX    TMP DP  RH WIND       PRES   REMARKS
NIAGARA FALLS  CLOUDY    49  40  71 SE6       29.99R
BUFFALO        CLOUDY    48  40  73 NE5       30.01R
DUNKIRK        CLOUDY    46  41  82 N3        30.00R
JAMESTOWN      CLOUDY    45  39  81 N6        29.96S
WELLSVILLE     CLOUDY    47  44  90 NW6       29.97R
ROCHESTER      MOCLDY    49  42  77 CALM      30.01R
PENN YAN       CLOUDY    47  42  83 CALM      29.99S
$$

             KEY
       WCI = WIND CHILL INDEX
       VSB = VISIBILITY
       HX  = HEAT INDEX
$$




USA.gov is the U.S. government's official web portal to all federal, state and local government web resources and services.